sat.trackr.live / text

‹ back to catalog

STARLINK-33892

NORAD 63783 · 2025-091J

PAYLOAD ACTIVE UNKNOWN

§ Identity

Operator
Country
US
Launch date
2025-05-02
Launch site
AFETR
Launch vehicle
Mass (kg)
RCS (m²)

Purposes: comms

External: N2YO · Heavens-Above · Gunter

§ Orbital elements

Epoch: 2026-05-24T20:59:09.005856Z

Period
94.27 min
Inclination
43.0049°
Eccentricity
0.0001694
Mean motion
15.27577183 rev/d
Perigee alt
481.9 km
Apogee alt
484.2 km
Semi-major
6,861.2 km
B*
4.3380e-4
RAAN
342.2796°
Arg perigee
251.9483°
Mean anomaly
108.1185°
Rev number
6,055

§ Raw data

STARLINK-338921 63783U 25091J   26144.87440979  .00011693  00000+0  43380-3 0  99992 63783  43.0049 342.2796 0001694 251.9483 108.1185 15.27577183 60550

JSON: /api/v1/satellites/63783 · /tle

For live sub-satellite position, see the globe view (requires WebGL).

§ Visibility from observer

Set your observer location to see the next 7 days of passes ≥ 10°. The values pass through the URL so the page stays shareable.

No JS? Fill the form by hand. The geolocation button needs JavaScript.